Location: Newark
(25.3833°N, 97.4000°E)
Time: 14:55:39
(UTC+00:00)

First-Move - Pass Details

Date: 22 February 2020
Orbit: 576 x 669 km, 97.6° (Epoch: 08 April)

Event Time Altitude Azimuth Distance (km) Brightness Sun altitude
Rises 22:37:14 0° 30° (NNE) 3,006 ? -19.3°
Reaches altitude 10° 22:39:54 10° 45° (NE) 2,083 ? -18.7°
Maximum altitude 22:43:28 23° 96° (E) 1,406 ? -17.9°
Drops below altitude 10° 22:46:59 10° 148° (SSE) 2,045 ? -17.1°
Sets 22:49:34 0° 163° (SSE) 2,936 ? -16.5°
